CZ-5 R/B (44911 NORAD) Tracking and Keplerian Element Data

This shows tracking and keplerian element data for the satellite.

Feedback or suggestion? Click here.




ElementValue
Catalog44911
NameCZ-5 R/B
Epoch Orbit20
Epoch Day17.55002391
Epoch Year2020
RAAN304.4047
Inclination17.7596
Eccentricity0.8467808
Argument of Perigee200.758
Mean Anonmoly55.8007
Mean Motion0.96020107
Decay Rate3.675E-05
L11 44911U 19097B 20017.55002391 .00003675 00000-0 69840-2 0 9990
L22 44911 17.7596 304.4047 8467808 200.7580 55.8007 0.96020107 203

Live tracking and technical data element details for CZ-5 R/B (NORAD 44911). CZ-5 R/B can be tracked NOW for your location showing map with azimuth and elevation plus other details from your city location.

Track the satellite on the map from your city or location and see movement details for azimuth, elevation, latitude, longitude, range, height, and movement on the map or in text.







IsCatalogInMostPopularTable: catalog: 44911, numindb: 8
Update: records affected: 1



GetName: 44911 CZ-5 R/B

Hit Count: updated at: Sat, 18 Jan 2020 17:07:44 GMT